Find Starlink 3330

NORAD ID: 50836 Int'l Des: 2022-001 Owner: SPXS Country: US Constellation: starlink operational
LEOCIRCULAR

当前视图

正在加载3D地球...

About Starlink 3330

Starlink 3330 (NORAD 50836) is a starlink constellation satellite (v1.5) launched Jan 6, 2022 by SPXS of US. It operates in LEO, CIRCULAR orbit with a mass of 297.00 kg.

即将过境

Passes for default location (London). Set your location on the main map for personalized predictions.

高度历史

Loading altitude history...

两行轨道根数

1 50836U 22001AK 26265.52806234 -.00001101 00000-0 -23723-4 0 9994
2 50836 53.1612 0.3352 0000988 108.7119 251.3990 15.31701903260082
Epoch: Sep 22, 2026 • Age: 12 hours

当前状态

高度 472.0 km
远地点 / 近地点 N/A
速度 7.63 km/s
星下点 -3.43°S, 172.19°E
发射日期 Jan 6, 2022
运行时间 4.7 years
类型 internet

技术详情

分类 Payload
质量 297.00 kg
干质量 275.00 kg
长度 0.20 m
跨度 9.00 m
形状 ? Box + pan
制造商 SPXS
平台类型 Starlink
阶段状态 In Orbit
所有者/国家 SPXS/US

Most Searched